Date String (YYYY-MM-DD hh:mm:ss) UTC,Instrument flags,absolute air pressure of the measurement (hPa),sample flow rate (lpm),inlet stack bypass flow (lpm),air temperature of the measurement (°C),ambient temperature measured by the external sensor (°C),aerosol sample conditioner tube jacket temperature (°C),OPC LED temperature (°C),internal box temperature (°C),relative humidity of the measurement (%),span deviation,mass concentration of particles derived from Lorenz-Mie calculation of OPC scattering (μg/m³),mass concentration of particles derived from Lorenz-Mie calculation of OPC scattering (μg/m³),mass concentration of particles derived from Lorenz-Mie calculation of OPC scattering (μg/m³)
DateTimeUTC,F1_M11,P_M11,Q1_M11,Q2_M11,T1_M11,T2_M11,T3_M11,T4_M11,T5_M11,U1_M11,ZSPAN_M11,X2_M11,X0_M11,X1_M11
2023-07-26 15:00:00,SystemResetWarning,0835.1,5.01,000.00,029.2,025.7,000.0,037.4,030.7,28.7,0000.0,0004.54,0014.86,0003.38
2023-07-26 15:01:00,SystemResetWarning,0835.1,5.01,000.00,029.1,025.5,000.0,037.3,030.5,28.8,0000.0,0004.53,0014.67,0003.38
2023-07-26 15:02:00,SystemResetWarning,0835.1,5.01,000.00,029.0,025.8,000.0,037.3,030.4,28.7,0000.0,0004.53,0014.64,0003.38
2023-07-26 15:03:00,SystemResetWarning,0835.2,5.00,000.00,029.0,026.2,000.0,037.4,030.4,28.1,0000.0,0004.62,0015.04,0003.39
2023-07-26 15:04:00,SystemResetWarning,0835.2,4.99,000.00,029.0,026.5,000.0,037.4,030.5,28.5,0000.0,0004.67,0015.31,0003.39
2023-07-26 15:05:00,SystemResetWarning,0835.2,5.01,000.00,029.0,026.9,000.0,037.4,030.6,29.2,0000.0,0004.71,0015.10,0003.39
2023-07-26 15:06:00,SystemResetWarning,0835.1,5.01,000.00,029.1,027.2,000.0,037.5,030.7,29.2,0000.0,0004.73,0013.76,0003.40
2023-07-26 15:07:00,SystemResetWarning,0835.2,4.99,000.00,029.1,027.5,000.0,037.5,030.8,28.8,0000.0,0004.78,0013.72,0003.40
2023-07-26 15:08:00,SystemResetWarning,0835.2,4.99,000.00,029.1,027.7,000.0,037.5,030.8,29.5,0000.0,0004.78,0014.27,0003.39
2023-07-26 15:09:00,SystemResetWarning,0835.2,4.99,000.00,029.2,027.1,000.0,037.4,030.8,28.9,0000.0,0004.82,0014.45,0003.39
2023-07-26 15:10:00,SystemResetWarning,0835.1,5.00,000.00,029.1,025.7,000.0,037.3,030.6,29.0,0000.0,0004.84,0014.24,0003.38
2023-07-26 15:11:00,SystemResetWarning,0835.1,5.00,000.00,029.1,025.4,000.0,037.2,030.4,28.4,0000.0,0004.90,0014.23,0003.38
2023-07-26 15:12:00,SystemResetWarning,0835.1,5.01,000.00,029.0,025.7,000.0,037.3,030.3,28.3,0000.0,0004.94,0014.80,0003.38
2023-07-26 15:13:00,SystemResetWarning,0835.1,4.99,000.00,029.0,026.0,000.0,037.3,030.4,30.5,0000.0,0004.94,0015.20,0003.39
2023-07-26 15:14:00,SystemResetWarning,0835.1,5.01,000.00,029.0,026.4,000.0,037.4,030.5,30.4,0000.0,0004.93,0015.69,0003.41
2023-07-26 15:15:00,SystemResetWarning,0835.1,5.00,000.00,029.0,026.8,000.0,037.4,030.5,31.7,0000.0,0004.91,0015.28,0003.43
2023-07-26 15:16:00,SystemResetWarning,0835.1,4.99,000.00,029.0,027.1,000.0,037.4,030.6,30.6,0000.0,0004.84,0015.00,0003.44
2023-07-26 15:17:00,SystemResetWarning,0835.1,4.99,000.00,029.0,027.4,000.0,037.4,030.7,29.9,0000.0,0004.83,0015.16,0003.46
2023-07-26 15:18:00,SystemResetWarning,0835.1,5.00,000.00,029.1,027.7,000.0,037.4,030.8,27.9,0000.0,0004.81,0014.93,0003.49
2023-07-26 15:19:00,SystemResetWarning,0835.2,5.01,000.00,029.1,027.8,000.0,037.4,030.8,29.2,0000.0,0004.81,0014.29,0003.51
2023-07-26 15:20:00,SystemResetWarning,0835.1,4.99,000.00,029.1,026.7,000.0,037.4,030.7,29.9,0000.0,0004.84,0014.82,0003.53
2023-07-26 15:21:00,SystemResetWarning,0835.0,5.01,000.00,029.1,025.5,000.0,037.3,030.5,29.6,0000.0,0004.83,0015.28,0003.55
2023-07-26 15:22:00,SystemResetWarning,0835.0,5.02,000.00,029.0,025.6,000.0,037.2,030.4,29.7,0000.0,0004.79,0014.62,0003.57
2023-07-26 15:23:00,SystemResetWarning,0835.0,4.99,000.00,029.0,025.9,000.0,037.3,030.4,29.6,0000.0,0004.76,0014.20,0003.58
2023-07-26 15:24:00,SystemResetWarning,0835.0,4.99,000.00,028.9,026.3,000.0,037.3,030.4,28.4,0000.0,0004.72,0013.58,0003.59
2023-07-26 15:25:00,SystemResetWarning,0835.1,5.00,000.00,029.0,026.7,000.0,037.4,030.5,27.3,0000.0,0004.75,0012.91,0003.61
2023-07-26 15:26:00,SystemResetWarning,0835.1,5.00,000.00,029.0,027.0,000.0,037.4,030.6,28.6,0000.0,0004.78,0013.01,0003.62
2023-07-26 15:27:00,SystemResetWarning,0835.1,5.01,000.00,029.0,027.3,000.0,037.4,030.7,29.7,0000.0,0004.77,0012.86,0003.62
2023-07-26 15:28:00,SystemResetWarning,0835.1,5.00,000.00,029.1,027.6,000.0,037.4,030.7,29.0,0000.0,0004.76,0013.27,0003.62
2023-07-26 15:29:00,SystemResetWarning,0835.2,5.00,000.00,029.1,027.8,000.0,037.4,030.8,28.0,0000.0,0004.81,0014.30,0003.62
2023-07-26 15:30:00,SystemResetWarning,0835.2,4.98,000.00,029.1,026.9,000.0,037.4,030.8,24.4,0000.0,0004.83,0014.71,0003.64
2023-07-26 15:31:00,SystemResetWarning,0835.1,5.01,000.00,029.1,025.6,000.0,037.3,030.6,23.8,0000.0,0004.81,0014.05,0003.65
2023-07-26 15:32:00,SystemResetWarning,0835.1,5.01,000.00,029.0,025.5,000.0,037.2,030.5,24.2,0000.0,0004.81,0014.12,0003.65
2023-07-26 15:33:00,SystemResetWarning,0835.1,4.99,000.00,029.0,025.8,000.0,037.2,030.4,25.2,0000.0,0004.81,0014.22,0003.65
2023-07-26 15:34:00,SystemResetWarning,0835.2,5.00,000.00,028.9,026.2,000.0,037.3,030.4,24.1,0000.0,0004.81,0014.02,0003.64
2023-07-26 15:35:00,SystemResetWarning,0835.2,5.01,000.00,029.0,026.6,000.0,037.3,030.5,24.9,0000.0,0004.82,0014.08,0003.63
2023-07-26 15:36:00,SystemResetWarning,0835.1,5.00,000.00,029.0,027.0,000.0,037.4,030.6,25.4,0000.0,0004.77,0014.63,0003.62
2023-07-26 15:37:00,SystemResetWarning,0835.1,5.00,000.00,029.0,027.3,000.0,037.4,030.7,25.5,0000.0,0004.70,0014.44,0003.61
2023-07-26 15:38:00,SystemResetWarning,0835.1,5.00,000.00,029.1,027.6,000.0,037.4,030.8,24.2,0000.0,0004.69,0014.14,0003.60
2023-07-26 15:39:00,SystemResetWarning,0835.1,5.00,000.00,029.1,027.5,000.0,037.4,030.8,25.4,0000.0,0004.65,0013.65,0003.60
2023-07-26 15:40:00,SystemResetWarning,0835.1,4.99,000.00,029.1,026.2,000.0,037.3,030.6,26.2,0000.0,0004.58,0012.01,0003.58
2023-07-26 15:41:00,SystemResetWarning,0835.0,5.02,000.00,029.0,025.4,000.0,037.2,030.4,27.1,0000.0,0004.54,0011.38,0003.54
2023-07-26 15:42:00,SystemResetWarning,0835.0,5.00,000.00,029.0,025.6,000.0,037.2,030.4,27.7,0000.0,0004.48,0011.36,0003.50
2023-07-26 15:43:00,SystemResetWarning,0835.0,4.99,000.00,028.9,026.0,000.0,037.3,030.3,29.0,0000.0,0004.44,0011.08,0003.49
2023-07-26 15:44:00,SystemResetWarning,0835.0,5.00,000.00,028.9,026.4,000.0,037.3,030.4,28.7,0000.0,0004.41,0010.63,0003.48
2023-07-26 15:45:00,SystemResetWarning,0835.0,5.01,000.00,028.9,026.8,000.0,037.3,030.5,27.9,0000.0,0004.37,0011.66,0003.48
2023-07-26 15:46:00,SystemResetWarning,0835.0,4.99,000.00,029.0,027.1,000.0,037.3,030.6,27.0,0000.0,0004.32,0011.83,0003.45
2023-07-26 15:47:00,SystemResetWarning,0835.0,5.00,000.00,029.0,027.4,000.0,037.4,030.7,27.4,0000.0,0004.25,0011.31,0003.40
2023-07-26 15:48:00,SystemResetWarning,0835.1,4.99,000.00,029.1,027.5,000.0,037.3,030.7,28.1,0000.0,0004.23,0011.00,0003.37
2023-07-26 15:49:00,SystemResetWarning,0835.1,5.00,000.00,029.0,026.2,000.0,037.3,030.5,28.6,0000.0,0004.21,0011.13,0003.34
2023-07-26 15:50:00,SystemResetWarning,0835.1,5.00,000.00,029.0,025.3,000.0,037.2,030.4,29.2,0000.0,0004.20,0010.86,0003.32
2023-07-26 15:51:00,SystemResetWarning,0835.1,5.02,000.00,028.9,025.6,000.0,037.1,030.3,27.7,0000.0,0004.14,0011.13,0003.29
2023-07-26 15:52:00,SystemResetWarning,0835.1,5.00,000.00,028.9,025.9,000.0,037.2,030.3,27.4,0000.0,0004.07,0011.57,0003.28
2023-07-26 15:53:00,SystemResetWarning,0835.1,5.00,000.00,028.9,026.3,000.0,037.2,030.4,27.0,0000.0,0004.05,0011.45,0003.27
2023-07-26 15:54:00,SystemResetWarning,0835.1,5.00,000.00,028.9,026.7,000.0,037.3,030.4,28.2,0000.0,0003.99,0010.87,0003.23
2023-07-26 15:55:00,SystemResetWarning,0835.1,4.99,000.00,028.9,027.1,000.0,037.3,030.5,28.4,0000.0,0003.96,0010.90,0003.21
2023-07-26 15:56:00,SystemResetWarning,0835.1,4.98,000.00,029.0,027.4,000.0,037.3,030.6,28.2,0000.0,0003.93,0009.71,0003.18
2023-07-26 15:57:00,SystemResetWarning,0835.1,5.00,000.00,029.0,026.8,000.0,037.2,030.7,28.2,0000.0,0003.96,0009.69,0003.19
2023-07-26 15:58:00,SystemResetWarning,0835.1,5.00,000.00,029.0,025.5,000.0,037.1,030.5,28.9,0000.0,0003.98,0009.63,0003.20
2023-07-26 15:59:00,SystemResetWarning,0835.1,5.00,000.00,028.9,025.3,000.0,037.1,030.3,29.2,0000.0,0003.99,0009.70,0003.21
